Overview Statistics Trail Chart Weather Telemetry Raw packets
 

This is the latest recevied weather packets stored in our database for station/object KD7CIH. If no packets are shown the sender has not sent any weather packets the latest 10 day(s).

<< 109 110 111 112 113 114 115 >>
Time Temp. Humidity Pressure Rain* Wind** Luminosity Snow
1787874731 26.11° C 24% 1018.1 hPa 0 mm - - -
1787874307 26.67° C 24% 1018 hPa 0 mm - - -
1787874005 26.67° C 23% 1018 hPa 0 mm - - -
1787873832 26.67° C 23% 1017.8 hPa 0 mm - - -
1787873407 27.22° C 23% 1017.6 hPa 0 mm - - -
1787873107 27.78° C 21% 1017.6 hPa 0 mm - - -
1787872805 27.78° C 21% 1017.5 hPa 0 mm - - -
1787872505 27.78° C 20% 1017.5 hPa 0 mm - - -
1787872206 27.78° C 20% 1017.4 hPa 0 mm - - -
1787871906 27.78° C 19% 1017.2 hPa 0 mm - - -
1787871604 28.33° C 19% 1017.2 hPa 0 mm - - -
1787871296 28.33° C 19% 1017.2 hPa 0 mm - - -
1787870991 28.89° C 18% 1017.1 hPa 0 mm - - -
1787870811 29.44° C 18% 1017 hPa 0 mm - - -
1787870379 30° C 18% 1017 hPa 0 mm - - -
1787870075 30° C 15% 1017 hPa 0 mm - - -
1787869904 30.56° C 15% 1017 hPa 0 mm - - -
1787869475 30.56° C 15% 1017 hPa 0 mm - - -
1787869176 30.56° C 14% 1017 hPa 0 mm - - -
1787868875 31.67° C 14% 1017.1 hPa 0 mm - - -
1787868576 31.67° C 15% 1017 hPa 0 mm - - -
1787868274 31.67° C 15% 1017 hPa 0 mm - - -
1787867975 32.22° C 14% 1017.1 hPa 0 mm - - -
1787867674 31.67° C 16% 1017.1 hPa 0 mm - - -
1787867376 31.11° C 16% 1017.1 hPa 0 mm - - -

* Rain latest hour (hover to see other rain measurements)
** Current wind speed in m/s (hover to see current wind gust speed)